Regional Weather Roundup
Issued by NWS

Home | Current Version | Previous Version | Text Only | Print | Product List | Glossary On
Versions: 1 2 3 4 5 6 7 8 9 10 11 12 13 14 15 16 17 18 19 20 21 22 23 24 25 26 27 28 29 30 31 32 33 34 35 36 37 38 39 40 41 42 43 44 45 46 47 48 49 50
000
ASUS44 KLIX 110210
RWRLA
LOUISIANA WEATHER ROUNDUP
NATIONAL WEATHER SERVICE NEW ORLEANS LA
800 PM CST WED FEB 10 2016

NOTE: "FAIR" INDICATES FEW OR NO CLOUDS BELOW 12,000 FEET WITH NO
      SIGNIFICANT WEATHER AND/OR OBSTRUCTIONS TO VISIBILITY.
      SKY/WX - SKY CONDITION AND SIGNIFICANT WEATHER.
      TMP - AIR TEMPERATURE.    DP   - DEWPOINT TEMPERATURE.
      RH  - RELATIVE HUMIDITY.  PRES - PRESSURE.
      HX  - HEAT INDEX.         WCI  - WIND CHILL INDEX.

*  THESE STATIONS ARE NOT NWS OR FAA STATIONS AND ARE NOT UNDER
   NWS QUALITY CONTROL.

LAZ040-048-061>063-065-066-069-110300-
SOUTHEAST LOUISIANA

CITY           SKY/WX    TMP DP  RH WIND       PRES   REMARKS
N.O. AUDUBON     N/A     50  41  70 MISG        N/A
N.O. INTL ARPT PTCLDY    49  35  58 S10       30.26S
N.O. LAKEFRONT CLEAR     50  36  58 SW10      30.26F
N.O. DOWNTOWN* FAIR      54  37  54 MISG      30.27S
RESERVE*       FAIR      50  32  49 SW7       30.27R
SLIDELL        CLEAR     44  34  67 CALM      30.25S
BATON ROUGE    CLEAR     52  32  46 SW13      30.24S
BOOTHVILLE     CLEAR     52  38  58 SW9       30.29F
BELLE CHASSE   CLEAR     45  38  76 SW8       30.27S
BOGALUSA*        N/A     48  31  50 SW6       30.24S
GALLIANO*      CLEAR     49  38  64 SW7       30.29S
NEW ROADS*     FAIR      49  32  52 S7        30.24R
GONZALES*      FAIR      49  34  54 SW7       30.26S
HAMMOND*       CLEAR     45  32  61 CALM      30.24S
HOUMA*         CLEAR     46  35  63 SW7       30.29S
PORT FOURCHON* CLEAR     52  36  54 SW6       30.30F

$$

LAZ041-044-053-054-110300-
SOUTHWEST LOUISIANA

CITY           SKY/WX    TMP DP  RH WIND       PRES   REMARKS
LAKE CHARLES   CLEAR     48  40  73 S5        30.26F
LAFAYETTE      CLEAR     48  36  63 SW9       30.27S
PATTERSON      CLEAR     45  34  65 SW7       30.30S
SALT POINT       N/A     51  41  68 SW5       30.28F
NEW IBERIA     CLEAR     45  37  73 SW8       30.28S
CHENAULT AIRPK CLEAR     48  37  66 S7        30.26S

$$

LAZ027-028-110300-
CENTRAL LOUISIANA

CITY           SKY/WX    TMP DP  RH WIND       PRES   REMARKS
FORT POLK      CLEAR     53  34  48 S10       30.21S
ALEXANDRIA INT CLEAR     48  35  60 S7        30.19S
ALEXANDRIA     CLEAR     54  32  43 SW7       30.20S

$$

LAZ001-002-110300-
NORTHWEST LOUISIANA

CITY           SKY/WX    TMP DP  RH WIND       PRES   REMARKS
SHREVEPORT     CLEAR     56  32  40 S8        30.12S
BARKSDALE AFB  CLEAR     51  32  47 S9        30.12S
DTN SHREVEPORT CLEAR     57  31  37 S9        30.12S

$$

LAZ014-016-110300-
NORTHEAST LOUISIANA

CITY           SKY/WX    TMP DP  RH WIND       PRES   REMARKS
MONROE         CLEAR     50  30  46 S7        30.14F
TALLULAH       CLEAR     49  29  46 S6        30.16F

$$




USA.gov is the U.S. government's official web portal to all federal, state and local government web resources and services.